Weather History for Silver City, NM

Change the Weather History Date:

Saturday, September 15, 2012

  Actual Average (KDMN) Record (KDMN)
Temperature  
Mean Temperature 57 °F 73 °F  
Max Temperature 73 °F 88 °F 97 °F (1956)
Min Temperature 41 °F 58 °F 43 °F (1987)
Degree Days  
Heating Degree Days 8    
Growing Degree Days 7 (Base 50)    
Moisture  
Dew Point 35 °F    
Average Humidity 47    
Maximum Humidity 87    
Minimum Humidity 19    
Precipitation  
Precipitation 0.00 in 0.04 in 1.01 in (1949)
Month to date precipitation 0.66  
Year to date precipitation 8.25  
Sea Level Pressure  
Sea Level Pressure 30.34 in    
Wind  
Wind Speed 5 mph (East)    
Max Wind Speed 14 mph    
Max Gust Speed 22 mph    
Visibility 10 miles    
Events      
T = Trace of Precipitation, MM = Missing Value Source: NWS Daily Summary

Daily Weather History Graph

Daily Weather History Graph

Search for Another Location

Airport:

Trip Planner

Search our weather history database for the weather conditions in past years. The results will help you decide how hot, cold, wet, or windy it might be!

Date:

Astronomy

Sep. 15, 2012 Rise Set
Actual Time 6:56 AM MDT 7:17 PM MDT
Civil Twilight 6:32 AM MDT 7:42 PM MDT
Nautical Twilight 6:03 AM MDT 8:11 PM MDT
Astronomical Twilight 5:33 AM MDT 8:40 PM MDT
Moon 6:29 AM MDT (9/15) 6:53 PM MDT (9/15)
Length of Visible Light 13h 10m
Length of Day
12h 21m
Waning Crescent, 0% of the Moon is Illuminated
Sep 15
Waning Crescent
Sep 15
New
Sep 22
First Quarter
Sep 29
Full
Oct 8
Last Quarter

Hourly Weather History & Observations

Time (MDT) Temp. Windchill Dew Point Humidity Pressure Visibility Wind Dir Wind Speed Gust Speed Precip Events Conditions
12:15 AM 48.2 °F - 41.0 °F 76% 30.43 in 10.0 mi Calm Calm - N/A   Clear
12:35 AM 46.4 °F - 41.0 °F 81% 30.42 in 10.0 mi Calm Calm - N/A   Clear
12:55 AM 46.4 °F 45.2 °F 41.0 °F 81% 30.42 in 10.0 mi NE 3.5 mph - N/A   Clear
1:15 AM 46.4 °F 43.5 °F 41.0 °F 81% 30.42 in 10.0 mi NNE 5.8 mph - N/A   Clear
1:35 AM 46.4 °F 41.9 °F 42.8 °F 87% 30.41 in 10.0 mi NNE 9.2 mph - N/A   Clear
1:55 AM 46.4 °F 42.4 °F 41.0 °F 81% 30.41 in 10.0 mi NNE 8.1 mph - N/A   Clear
2:15 AM 46.4 °F 42.4 °F 41.0 °F 81% 30.41 in 10.0 mi NNE 8.1 mph - N/A   Clear
2:35 AM 48.2 °F - 41.0 °F 76% 30.40 in 10.0 mi NE 8.1 mph - N/A   Clear
2:55 AM 48.2 °F - 41.0 °F 76% 30.39 in 10.0 mi NE 5.8 mph - N/A   Clear
3:15 AM 48.2 °F - 41.0 °F 76% 30.39 in 10.0 mi NE 9.2 mph - N/A   Clear
3:35 AM 46.4 °F 42.9 °F 39.2 °F 76% 30.39 in 10.0 mi NNE 6.9 mph - N/A   Clear
3:55 AM 46.4 °F 42.4 °F 41.0 °F 81% 30.38 in 10.0 mi NNE 8.1 mph - N/A   Clear
4:15 AM 44.6 °F 40.2 °F 39.2 °F 81% 30.38 in 10.0 mi NNE 8.1 mph - N/A   Clear
4:35 AM 46.4 °F 41.9 °F 39.2 °F 76% 30.38 in 10.0 mi NNE 9.2 mph - N/A   Clear
4:55 AM 44.6 °F 40.2 °F 39.2 °F 81% 30.38 in 10.0 mi NNE 8.1 mph - N/A   Clear
5:15 AM 46.4 °F 41.9 °F 39.2 °F 76% 30.38 in 10.0 mi NNE 9.2 mph - N/A   Clear
5:35 AM 44.6 °F 40.2 °F 39.2 °F 81% 30.38 in 10.0 mi NNE 8.1 mph - N/A   Clear
5:55 AM 44.6 °F 40.2 °F 37.4 °F 76% 30.38 in 10.0 mi NNE 8.1 mph - N/A   Clear
6:15 AM 42.8 °F 41.1 °F 37.4 °F 81% 30.39 in 10.0 mi NNW 3.5 mph - N/A   Clear
6:35 AM 41.0 °F 38.0 °F 35.6 °F 81% 30.39 in 10.0 mi NNW 4.6 mph - N/A   Clear
7:15 AM 42.8 °F 38.0 °F 37.4 °F 81% 30.39 in 10.0 mi North 8.1 mph - N/A   Clear
7:55 AM 48.2 °F - 39.2 °F 71% 30.39 in 10.0 mi WNW 3.5 mph - N/A   Clear
8:15 AM 53.6 °F - 37.4 °F 54% 30.40 in 10.0 mi NNW 4.6 mph - N/A   Clear
8:35 AM 55.4 °F - 35.6 °F 47% 30.39 in 10.0 mi Calm Calm - N/A   Clear
8:55 AM 57.2 °F - 35.6 °F 44% 30.40 in 10.0 mi Calm Calm - N/A   Clear
9:15 AM 57.2 °F - 35.6 °F 44% 30.40 in 10.0 mi Calm Calm - N/A   Clear
9:35 AM 59.0 °F - 35.6 °F 42% 30.40 in 10.0 mi South 4.6 mph - N/A   Clear
9:55 AM 59.0 °F - 35.6 °F 42% 30.40 in 10.0 mi South 4.6 mph - N/A   Clear
10:15 AM 60.8 °F - 35.6 °F 39% 30.39 in 10.0 mi SSE 6.9 mph - N/A   Clear
10:35 AM 60.8 °F - 35.6 °F 39% 30.39 in 10.0 mi SSE 6.9 mph - N/A   Clear
10:55 AM 62.6 °F - 35.6 °F 37% 30.39 in 10.0 mi SSW 5.8 mph - N/A   Clear
11:15 AM 64.4 °F - 35.6 °F 34% 30.39 in 10.0 mi Calm Calm - N/A   Clear
11:35 AM 64.4 °F - 33.8 °F 32% 30.38 in 10.0 mi ESE 5.8 mph - N/A   Clear
11:55 AM 66.2 °F - 33.8 °F 30% 30.38 in 10.0 mi SW 3.5 mph - N/A   Clear
12:15 PM 68.0 °F - 33.8 °F 28% 30.37 in 10.0 mi SE 8.1 mph - N/A   Clear
12:35 PM 68.0 °F - 33.8 °F 28% 30.37 in 10.0 mi SE 11.5 mph 16.1 mph N/A   Clear
12:55 PM 68.0 °F - 32.0 °F 26% 30.35 in 10.0 mi South 10.4 mph - N/A   Clear
1:15 PM 68.0 °F - 32.0 °F 26% 30.35 in 10.0 mi South 6.9 mph 19.6 mph N/A   Clear
1:35 PM 71.6 °F - 32.0 °F 23% 30.34 in 10.0 mi SE 13.8 mph 17.3 mph N/A   Clear
1:55 PM 71.6 °F - 32.0 °F 23% 30.33 in 10.0 mi SSE 8.1 mph 21.9 mph N/A   Clear
2:15 PM 71.6 °F - 32.0 °F 23% 30.33 in 10.0 mi ESE 5.8 mph 21.9 mph N/A   Clear
2:35 PM 71.6 °F - 32.0 °F 23% 30.31 in 10.0 mi ESE 8.1 mph - N/A   Clear
2:55 PM 73.4 °F - 32.0 °F 22% 30.30 in 10.0 mi SSE 11.5 mph - N/A   Clear
3:15 PM 71.6 °F - 32.0 °F 23% 30.29 in 10.0 mi South 11.5 mph 17.3 mph N/A   Clear
3:35 PM 73.4 °F - 32.0 °F 22% 30.29 in 10.0 mi South 9.2 mph 16.1 mph N/A   Clear
3:55 PM 71.6 °F - 30.2 °F 22% 30.28 in 10.0 mi South 5.8 mph - N/A   Clear
4:15 PM 73.4 °F - 30.2 °F 20% 30.27 in 10.0 mi SSE 5.8 mph - N/A   Clear
4:35 PM 73.4 °F - 30.2 °F 20% 30.27 in 10.0 mi SSW 3.5 mph - N/A   Clear
4:55 PM 73.4 °F - 28.4 °F 19% 30.26 in 10.0 mi SSE 6.9 mph - N/A   Clear
5:15 PM 73.4 °F - 30.2 °F 20% 30.26 in 10.0 mi SE 5.8 mph - N/A   Clear
5:35 PM 73.4 °F - 30.2 °F 20% 30.26 in 10.0 mi South 4.6 mph - N/A   Clear
5:55 PM 73.4 °F - 30.2 °F 20% 30.26 in 10.0 mi South 5.8 mph - N/A   Clear
6:15 PM 73.4 °F - 30.2 °F 20% 30.26 in 10.0 mi South 8.1 mph - N/A   Clear
6:35 PM 73.4 °F - 30.2 °F 20% 30.26 in 10.0 mi Calm Calm - N/A   Clear
6:55 PM 71.6 °F - 30.2 °F 22% 30.26 in 10.0 mi South 6.9 mph - N/A   Clear
7:15 PM 69.8 °F - 30.2 °F 23% 30.26 in 10.0 mi South 8.1 mph - N/A   Clear
7:35 PM 68.0 °F - 30.2 °F 24% 30.27 in 10.0 mi South 5.8 mph - N/A   Clear
7:55 PM 66.2 °F - 30.2 °F 26% 30.28 in 10.0 mi SW 3.5 mph - N/A   Clear
8:15 PM 64.4 °F - 32.0 °F 30% 30.28 in 10.0 mi WSW 4.6 mph - N/A   Clear
8:35 PM 62.6 °F - 32.0 °F 32% 30.29 in 10.0 mi WNW 6.9 mph - N/A   Clear
8:55 PM 62.6 °F - 32.0 °F 32% 30.30 in 10.0 mi West 3.5 mph - N/A   Clear
9:15 PM 57.2 °F - 30.2 °F 36% 30.30 in 10.0 mi NNW 5.8 mph - N/A   Clear
9:35 PM 55.4 °F - 30.2 °F 38% 30.30 in 10.0 mi North 5.8 mph - N/A   Clear
9:55 PM 55.4 °F - 32.0 °F 41% 30.30 in 10.0 mi NNE 4.6 mph - N/A   Clear
10:15 PM 53.6 °F - 32.0 °F 44% 30.31 in 10.0 mi NNE 5.8 mph - N/A   Clear
10:35 PM 53.6 °F - 32.0 °F 44% 30.31 in 10.0 mi North 6.9 mph - N/A   Clear
10:55 PM 53.6 °F - 32.0 °F 44% 30.31 in 10.0 mi Calm Calm - N/A   Clear
11:15 PM 53.6 °F - 33.8 °F 47% 30.31 in 10.0 mi NW 5.8 mph - N/A   Clear
11:35 PM 50.0 °F - 32.0 °F 50% 30.31 in 10.0 mi NNW 5.8 mph - N/A   Clear
11:55 PM 50.0 °F - 33.8 °F 54% 30.30 in 10.0 mi NNW 6.9 mph - N/A   Clear